This is the latest recevied weather packets stored in our database for station/object HB9FHL-13. If no packets are shown the sender has not sent any weather packets the latest 10 day(s).
| Time | Temp. | Humidity | Pressure | Rain* | Wind** | Luminosity | Snow |
|---|---|---|---|---|---|---|---|
| 1788617357 | 20° C | - | 1023 hPa | 0 mm | - | - | - |
| 1788617057 | 18.89° C | - | 1028 hPa | 0 mm | - | - | - |
| 1788616756 | 20.56° C | - | 1025.6 hPa | 0 mm | - | - | - |
| 1788616455 | 21.67° C | - | 1021.6 hPa | 0 mm | - | - | - |
| 1788616204 | 21.67° C | - | 1026.4 hPa | 0 mm | - | - | - |
| 1788616155 | 21.67° C | - | 1026.4 hPa | 0 mm | - | - | - |
| 1788615854 | 22.22° C | - | 1023.2 hPa | 0 mm | - | - | - |
| 1788615253 | 22.78° C | - | 1026.4 hPa | 0 mm | - | - | - |
| 1788614953 | 21.67° C | - | 1025.4 hPa | 0 mm | - | - | - |
| 1788614652 | 21.67° C | - | 1027.9 hPa | 0 mm | - | - | - |
| 1788614352 | 22.22° C | - | 1022.7 hPa | 0 mm | - | - | - |
| 1788614078 | 21.67° C | - | 1022.2 hPa | 0 mm | - | - | - |
| 1788613790 | 22.22° C | - | 1024.2 hPa | 0 mm | - | - | - |
| 1788613751 | 22.22° C | - | 1024.2 hPa | 0 mm | - | - | - |
| 1788613450 | 21.67° C | - | 1024.5 hPa | 0 mm | - | - | - |
| 1788612849 | 21.11° C | - | 1026.6 hPa | 0 mm | - | - | - |
| 1788612548 | 21.11° C | - | 1028.4 hPa | 0 mm | - | - | - |
| 1788612248 | 21.67° C | - | 1024.9 hPa | 0 mm | - | - | - |
| 1788611946 | 21.11° C | - | 1026 hPa | 0 mm | - | - | - |
| 1788611645 | 21.11° C | - | 1025.3 hPa | 0 mm | - | - | - |
| 1788611343 | 21.67° C | - | 1021.4 hPa | 0 mm | - | - | - |
| 1788611043 | 22.22° C | - | 1029.4 hPa | 0 mm | - | - | - |
| 1788610742 | 22.22° C | - | 1024.1 hPa | 0 mm | - | - | - |
| 1788610441 | 22.22° C | - | 1028.2 hPa | 0 mm | - | - | - |
| 1788610140 | 21.67° C | - | 1025.6 hPa | 0 mm | - | - | - |
* Rain since midnight (hover to see other rain measurements)
** Current wind speed in m/s (hover to see current wind gust speed)